パンスターズ彗星

C/2013 G8 ( PanSTARRS )

English version
Home page
Updated on August 29, 2015

---------------------------------------------------------------------

・ プロフィール

発見日 2013年4月14日
発見光度 20.1等
発見者 Pan-STARRS 1 telescope (Haleakala)

・ 写真集

・ 軌道要素

Epoch 2013 Nov. 4.0 TT = JDT 2456600.5
T 2013 Nov. 14.97253 TT                                 MPCW
q   5.1411812            (2000.0)            P               Q
z  +0.0003260      Peri.   80.16839     +0.68103101     +0.60973146
 +/-0.0000011      Node   241.02102     -0.70680892     +0.69208530
e   0.9983241      Incl.   27.61496     +0.19135807     +0.38632304
From 144 observations 2013 Apr. 14-2015 Aug. 20, mean residual 0".5.

・ 光度変化

        m1 = 8.0 + 5 logΔ + 10.0 log r

---------------------------------------------------------------------

軌道要素はM.P.E.C. 2015-Q71に掲載されたものです。
光度グラフはComet for Windowsで作成したものです。

---------------------------------------------------------------------

Copyright(C) Seiichi Yoshida (comet@aerith.net). All rights reserved.